Change the Weather History Date:

Thursday, May 16, 2013

  Actual Average Record
Temperature  
Mean Temperature 62 °F -  
Max Temperature 75 °F 70 °F 90 °F (1962)
Min Temperature 48 °F 44 °F 29 °F (1934)
Degree Days  
Heating Degree Days 4    
Growing Degree Days 12 (Base 50)    
Moisture  
Dew Point 43 °F    
Average Humidity 52    
Maximum Humidity 88    
Minimum Humidity 25    
Precipitation  
Precipitation 0.00 in - - ()
Sea Level Pressure  
Sea Level Pressure 29.90 in    
Wind  
Wind Speed 4 mph (NW)    
Max Wind Speed 17 mph    
Max Gust Speed 24 mph    
Visibility 10 miles    
Events      
Averages and records for this station are not official NWS values.
T = Trace of Precipitation, MM = Missing Value Source: NWS Daily Summary

Daily Weather History Graph

Daily Weather History Graph

Search for Another Location

Airport or City:

Trip Planner

Search our weather history database for the weather conditions in past years. The results will help you decide how hot, cold, wet, or windy it might be!

Date:

Astronomy

May. 16, 2013 Rise Set
Actual Time 5:59 AM EDT 8:32 PM EDT
Civil Twilight 5:27 AM EDT 9:04 PM EDT
Nautical Twilight 4:48 AM EDT 9:44 PM EDT
Astronomical Twilight 4:04 AM EDT 10:28 PM EDT
Moon 11:32 AM EDT (5/16) 12:51 AM EDT (5/16)
Length of Visible Light 15h 36m
Length of Day
14h 33m
Waxing Crescent, 35% of the Moon is Illuminated
May 16
Waxing Crescent
May 18
First Quarter
May 25
Full
May 31
Last Quarter
Jun 8
New

Hourly Weather History & Observations

Time (EDT) Temp. Dew Point Humidity Pressure Visibility Wind Dir Wind Speed Gust Speed Precip Events Conditions
12:15 AM 59.0 °F 48.2 °F 67% 29.82 in 10.0 mi Calm Calm - N/A   Clear
12:35 AM 60.8 °F 46.4 °F 59% 29.81 in 10.0 mi Calm Calm - N/A   Clear
12:55 AM 60.8 °F 46.4 °F 59% 29.80 in 10.0 mi Calm Calm - N/A   Clear
1:15 AM 55.4 °F 46.4 °F 72% 29.80 in 10.0 mi Calm Calm - N/A   Clear
1:35 AM 57.2 °F 46.4 °F 67% 29.81 in 10.0 mi Calm Calm - N/A   Scattered Clouds
1:55 AM 55.4 °F 48.2 °F 77% 29.81 in 10.0 mi Calm Calm - N/A   Mostly Cloudy
2:15 AM 57.2 °F 48.2 °F 72% 29.80 in 10.0 mi Calm Calm - N/A   Mostly Cloudy
2:35 AM 57.2 °F 48.2 °F 72% 29.80 in 10.0 mi South 3.5 mph - N/A   Mostly Cloudy
2:55 AM 57.2 °F 48.2 °F 72% 29.80 in 10.0 mi Calm Calm - N/A   Mostly Cloudy
3:15 AM 57.2 °F 48.2 °F 72% 29.80 in 10.0 mi Calm Calm - N/A   Scattered Clouds
3:35 AM 53.6 °F 48.2 °F 82% 29.80 in 10.0 mi SW 4.6 mph - N/A   Mostly Cloudy
3:55 AM 53.6 °F 48.2 °F 82% 29.81 in 10.0 mi Calm Calm - N/A   Overcast
4:15 AM 53.6 °F 48.2 °F 82% 29.81 in 10.0 mi North 3.5 mph - N/A   Overcast
4:35 AM 51.8 °F 48.2 °F 88% 29.82 in 10.0 mi North 4.6 mph - N/A   Mostly Cloudy
4:55 AM 51.8 °F 48.2 °F 88% 29.82 in 10.0 mi North 3.5 mph - N/A   Mostly Cloudy
5:15 AM 53.6 °F 48.2 °F 82% 29.82 in 10.0 mi North 4.6 mph - N/A   Scattered Clouds
5:35 AM 51.8 °F 46.4 °F 82% 29.82 in 10.0 mi Calm Calm - N/A   Clear
5:55 AM 48.2 °F 44.6 °F 87% 29.83 in 10.0 mi SSW 4.6 mph - N/A   Clear
6:15 AM 50.0 °F 46.4 °F 87% 29.84 in 10.0 mi SSW 4.6 mph - N/A   Clear
6:35 AM 50.0 °F 46.4 °F 87% 29.84 in 10.0 mi SSW 3.5 mph - N/A   Clear
6:55 AM 51.8 °F 48.2 °F 88% 29.85 in 10.0 mi WSW 3.5 mph - N/A   Clear
7:15 AM 55.4 °F 50.0 °F 82% 29.85 in 10.0 mi Calm Calm - N/A   Clear
7:35 AM 55.4 °F 50.0 °F 82% 29.86 in 10.0 mi Calm Calm - N/A   Clear
7:55 AM 55.4 °F 50.0 °F 82% 29.87 in 10.0 mi Calm Calm - N/A   Clear
8:15 AM 60.8 °F 51.8 °F 72% 29.88 in 10.0 mi West 3.5 mph - N/A   Clear
8:35 AM 62.6 °F 51.8 °F 68% 29.88 in 10.0 mi Calm Calm - N/A   Clear
8:55 AM 64.4 °F 51.8 °F 64% 29.89 in 10.0 mi West 4.6 mph - N/A   Clear
9:15 AM 66.2 °F 48.2 °F 52% 29.89 in 10.0 mi Calm Calm - N/A   Clear
9:35 AM 66.2 °F 46.4 °F 49% 29.89 in 10.0 mi NNW 3.5 mph - N/A   Clear
9:55 AM 68.0 °F 46.4 °F 46% 29.90 in 10.0 mi WNW 4.6 mph - N/A   Clear
10:15 AM 69.8 °F 46.4 °F 43% 29.90 in 10.0 mi West 5.8 mph - N/A   Clear
10:35 AM 71.6 °F 44.6 °F 38% 29.90 in 10.0 mi NW 5.8 mph - N/A   Clear
10:55 AM 71.6 °F 42.8 °F 35% 29.91 in 10.0 mi NNW 5.8 mph - N/A   Clear
11:15 AM 73.4 °F 42.8 °F 33% 29.91 in 10.0 mi West 9.2 mph - N/A   Clear
11:35 AM 73.4 °F 39.2 °F 29% 29.92 in 10.0 mi WNW 9.2 mph - N/A   Clear
11:55 AM 73.4 °F 39.2 °F 29% 29.92 in 10.0 mi WNW 8.1 mph 20.7 mph N/A   Clear
12:15 PM 73.4 °F 39.2 °F 29% 29.92 in 10.0 mi NW 8.1 mph 16.1 mph N/A   Clear
12:35 PM 73.4 °F 39.2 °F 29% 29.92 in 10.0 mi NW 10.4 mph - N/A   Clear
12:55 PM 73.4 °F 39.2 °F 29% 29.92 in 10.0 mi NNW 9.2 mph 17.3 mph N/A   Clear
1:15 PM 75.2 °F 39.2 °F 27% 29.92 in 10.0 mi NW 11.5 mph 17.3 mph N/A   Clear
1:35 PM 75.2 °F 39.2 °F 27% 29.91 in 10.0 mi West 6.9 mph 17.3 mph N/A   Clear
1:55 PM 75.2 °F 39.2 °F 27% 29.91 in 10.0 mi NNW 10.4 mph 17.3 mph N/A   Clear
2:15 PM 75.2 °F 39.2 °F 27% 29.92 in 10.0 mi WNW 12.7 mph 19.6 mph N/A   Clear
2:35 PM 75.2 °F 41.0 °F 29% 29.92 in 10.0 mi WNW 11.5 mph 18.4 mph N/A   Clear
3:15 PM 75.2 °F 39.2 °F 27% 29.93 in 10.0 mi West 15.0 mph 20.7 mph N/A   Clear
3:35 PM 75.2 °F 39.2 °F 27% 29.93 in 10.0 mi WNW 17.3 mph 24.2 mph N/A   Clear
3:55 PM 75.2 °F 39.2 °F 27% 29.92 in 10.0 mi WNW 10.4 mph 16.1 mph N/A   Clear
4:15 PM 75.2 °F 37.4 °F 25% 29.92 in 10.0 mi NW 11.5 mph 21.9 mph N/A   Clear
4:35 PM 75.2 °F 39.2 °F 27% 29.92 in 10.0 mi NW 12.7 mph 19.6 mph N/A   Clear
4:55 PM 75.2 °F 37.4 °F 25% 29.92 in 10.0 mi WNW 6.9 mph 20.7 mph N/A   Clear
5:15 PM 75.2 °F 39.2 °F 27% 29.92 in 10.0 mi NW 10.4 mph 20.7 mph N/A   Clear
5:35 PM 75.2 °F 39.2 °F 27% 29.93 in 10.0 mi WNW 8.1 mph - N/A   Clear
6:15 PM 73.4 °F 39.2 °F 29% 29.93 in 10.0 mi NW 11.5 mph 17.3 mph N/A   Clear
6:35 PM 73.4 °F 39.2 °F 29% 29.94 in 10.0 mi WNW 4.6 mph - N/A   Clear
6:55 PM 71.6 °F 39.2 °F 31% 29.95 in 10.0 mi NNW 9.2 mph - N/A   Clear
7:15 PM 71.6 °F 39.2 °F 31% 29.95 in 10.0 mi NNW 8.1 mph - N/A   Clear
7:35 PM 69.8 °F 39.2 °F 33% 29.96 in 10.0 mi NNW 5.8 mph - N/A   Clear
7:55 PM 68.0 °F 39.2 °F 35% 29.97 in 10.0 mi NNW 3.5 mph - N/A   Clear
8:15 PM 66.2 °F 39.2 °F 37% 29.97 in 10.0 mi NW 3.5 mph - N/A   Clear
8:35 PM 64.4 °F 39.2 °F 40% 29.97 in 10.0 mi North 3.5 mph - N/A   Clear
8:55 PM 62.6 °F 39.2 °F 42% 29.97 in 10.0 mi North 4.6 mph - N/A   Clear
9:15 PM 60.8 °F 39.2 °F 45% 29.98 in 10.0 mi Calm Calm - N/A   Clear
9:35 PM 60.8 °F 39.2 °F 45% 29.99 in 10.0 mi Calm Calm - N/A   Clear
9:55 PM 59.0 °F 39.2 °F 48% 30.00 in 10.0 mi North 3.5 mph - N/A   Clear
10:15 PM 57.2 °F 39.2 °F 51% 30.01 in 10.0 mi NNE 4.6 mph - N/A   Clear
10:35 PM 57.2 °F 39.2 °F 51% 30.01 in 10.0 mi North 4.6 mph - N/A   Clear
10:55 PM 57.2 °F 39.2 °F 51% 30.01 in 10.0 mi North 5.8 mph - N/A   Clear
11:15 PM 57.2 °F 39.2 °F 51% 30.01 in 10.0 mi NNE 5.8 mph - N/A   Clear
11:35 PM 55.4 °F 41.0 °F 58% 30.01 in 10.0 mi Calm Calm - N/A   Scattered Clouds
11:55 PM 53.6 °F 41.0 °F 62% 30.02 in 10.0 mi North 3.5 mph - N/A   Mostly Cloudy